K9APR Weather Reports


time (UTC)temp
C
wind
direction
speed
KPH
gust
KPH
rain 1hr
cm
rain 24hr
cm
rain mn
cm
humidity
%
barometer
mb
20260903131004 24 165 0.0 0.0 0.00 0.00 0.00 88 1016.9
20260903130841 24 165 0.0 0.0 0.00 0.00 0.00 88 1016.9
20260903130739 24 165 0.0 0.0 0.00 0.00 0.00 88 1016.9
20260903130010 23 185 0.0 0.0 0.00 0.00 0.00 88 1016.9
20260903125931 23 185 0.0 0.0 0.00 0.00 0.00 88 1016.9
20260903125837 23 185 0.0 0.0 0.00 0.00 0.00 88 1016.9
20260903125350 23 185 0.0 0.0 0.00 0.00 0.00 88 1017.0
20260903125147 23 185 0.0 0.0 0.00 0.00 0.00 88 1017.0
20260903125048 23 185 0.0 0.0 0.00 0.00 0.00 88 1017.0
20260903125012 23 185 0.0 0.0 0.00 0.00 0.00 88 1017.0
20260903124941 23 185 0.0 0.0 0.00 0.00 0.00 88 1017.0
20260903124111 23 185 0.0 0.0 0.00 0.00 0.00 89 1016.8
20260903124037 23 185 0.0 0.0 0.00 0.00 0.00 89 1016.8
20260903123138 23 185 0.0 0.0 0.00 0.00 0.00 88 1016.8
20260903122353 22 185 0.0 0.0 0.00 0.00 0.00 88 1016.8
20260903122311 22 185 0.0 0.0 0.00 0.00 0.00 88 1016.8
20260903122240 22 185 0.0 0.0 0.00 0.00 0.00 88 1016.8
20260903121339 23 185 0.0 0.0 0.00 0.00 0.00 88 1016.9
20260903120437 23 185 0.0 0.0 0.00 0.00 0.00 88 1016.8
20260903115733 22 185 0.0 0.0 0.00 0.00 0.00 88 1016.7
20260903115650 22 185 0.0 0.0 0.00 0.00 0.00 88 1016.7
20260903115537 22 185 0.0 0.0 0.00 0.00 0.00 88 1016.7
20260903114711 23 185 0.0 0.0 0.00 0.00 0.00 88 1016.7
20260903114640 23 185 0.0 0.0 0.00 0.00 0.00 88 1016.7
20260903112957 22 187 0.0 0.0 0.00 0.00 0.00 88 1016.5
20260903112909 22 187 0.0 0.0 0.00 0.00 0.00 88 1016.5
20260903112837 22 187 0.0 0.0 0.00 0.00 0.00 88 1016.5
20260903112020 22 187 0.0 0.0 0.00 0.00 0.00 87 1016.4
20260903111939 22 187 0.0 0.0 0.00 0.00 0.00 87 1016.4
20260903111038 23 187 0.0 0.0 0.00 0.00 0.00 87 1016.4
20260903110136 23 187 0.0 0.0 0.00 0.00 0.00 86 1016.1
20260903105238 23 187 0.0 0.0 0.00 0.00 0.00 86 1016.0
20260903104408 23 187 0.0 0.0 0.00 0.00 0.00 86 1016.0
20260903104336 23 187 0.0 0.0 0.00 0.00 0.00 86 1016.0
20260903103516 23 187 0.0 0.0 0.00 0.00 0.00 86 1015.9
20260903103440 23 187 0.0 0.0 0.00 0.00 0.00 86 1015.9
20260903102621 23 169 0.0 0.0 0.00 0.00 0.00 86 1015.9
20260903102538 23 169 0.0 0.0 0.00 0.00 0.00 86 1015.9
20260903101638 23 167 0.0 0.0 0.00 0.00 0.00 86 1015.9
20260903100046 23 205 0.0 0.0 0.00 0.00 0.00 86 1015.7
20260903100000 23 205 0.0 0.0 0.00 0.00 0.00 86 1015.7
20260903095924 23 205 0.0 0.0 0.00 0.00 0.00 86 1015.7
20260903095838 23 205 0.0 0.0 0.00 0.00 0.00 86 1015.7
20260903095015 23 205 0.0 0.0 0.00 0.00 0.00 86 1015.6
20260903094943 23 205 0.0 0.0 0.00 0.00 0.00 86 1015.6
20260903094118 23 167 0.0 0.0 0.00 0.00 0.00 86 1015.8
20260903094038 23 167 0.0 0.0 0.00 0.00 0.00 86 1015.8
20260903092239 23 169 0.0 0.0 0.00 0.00 0.00 86 1015.8
20260903091428 23 169 0.0 0.0 0.00 0.00 0.00 86 1015.9
20260903091351 23 169 0.0 0.0 0.00 0.00 0.00 86 1015.9
20260903090439 23 169 0.0 0.0 0.00 0.00 0.00 86 1015.9
20260903085614 23 169 0.0 0.0 0.00 0.00 0.00 86 1015.9
20260903085537 23 169 0.0 0.0 0.00 0.00 0.00 86 1015.9
20260903084715 23 169 0.0 0.0 0.00 0.00 0.00 86 1015.9
20260903084639 23 169 0.0 0.0 0.00 0.00 0.00 86 1015.9
20260903083808 23 169 0.0 0.0 0.00 0.00 0.00 86 1015.9
20260903083737 23 169 0.0 0.0 0.00 0.00 0.00 86 1015.9
20260903082917 23 170 0.0 0.0 0.00 0.00 0.00 86 1015.9
20260903082838 23 170 0.0 0.0 0.00 0.00 0.00 86 1015.9
20260903082008 23 170 0.0 0.0 0.00 0.00 0.00 86 1015.9
20260903081937 23 170 0.0 0.0 0.00 0.00 0.00 86 1015.9
20260903081037 23 169 0.0 0.0 0.00 0.00 0.00 86 1015.8
20260903075239 23 173 0.0 0.0 0.00 0.00 0.00 86 1015.8
20260903074338 23 173 0.0 0.0 0.00 0.00 0.00 87 1015.8
20260903073440 23 173 0.0 0.0 0.00 0.00 0.00 87 1015.8
20260903072746 23 173 0.0 0.0 0.00 0.00 0.00 87 1015.9
20260903072707 23 173 0.0 0.0 0.00 0.00 0.00 87 1015.9
20260903072625 23 173 0.0 0.0 0.00 0.00 0.00 87 1015.9
20260903072538 23 173 0.0 0.0 0.00 0.00 0.00 87 1015.9
20260903071637 24 173 0.0 0.0 0.00 0.00 0.00 86 1015.8
20260903070844 24 173 0.0 0.0 0.00 0.00 0.00 86 1015.9
20260903070811 24 173 0.0 0.0 0.00 0.00 0.00 86 1015.9
20260903070738 24 173 0.0 0.0 0.00 0.00 0.00 86 1015.9
20260903065922 24 173 0.0 0.0 0.00 0.00 0.00 85 1015.8
20260903065837 24 173 0.0 0.0 0.00 0.00 0.00 85 1015.8
20260903065027 25 173 0.0 0.0 0.00 0.00 0.00 85 1015.9
20260903064937 25 173 0.0 0.0 0.00 0.00 0.00 85 1015.9
20260903064037 25 163 0.0 0.0 0.00 0.00 0.00 84 1016.0
20260903063142 25 168 0.0 0.0 0.00 0.00 0.00 84 1016.1
20260903061337 24 192 0.0 0.0 0.00 0.00 0.00 85 1016.5
20260903060438 24 207 0.0 0.0 0.00 0.00 0.00 85 1016.9
20260903055612 22 0 0.0 0.0 0.00 0.00 0.00 88 1017.3
20260903055537 22 0 0.0 0.0 0.00 0.00 0.00 88 1017.3
20260903054725 22 0 0.0 0.0 0.00 0.00 0.00 88 1017.1
20260903054638 22 0 0.0 0.0 0.00 0.00 0.00 88 1017.1
20260903053740 22 0 0.0 0.0 0.00 0.00 0.00 88 1017.2
20260903052009 22 0 0.0 0.0 0.00 0.00 0.00 88 1017.1
20260903051937 22 0 0.0 0.0 0.00 0.00 0.00 88 1017.1
20260903051037 22 0 0.0 0.0 0.00 0.00 0.00 88 1017.0
20260903050210 22 0 0.0 0.0 0.00 0.00 0.00 88 1017.0
20260903050138 22 0 0.0 0.0 0.00 0.00 0.00 88 1017.0
20260903045311 22 0 0.0 0.0 0.00 0.00 0.00 88 1017.0
20260903045238 22 0 0.0 0.0 0.00 0.00 0.00 88 1017.0
20260903044426 22 0 0.0 0.0 0.00 0.00 0.00 88 1016.8
20260903044338 22 0 0.0 0.0 0.00 0.00 0.00 88 1016.8
20260903043439 22 0 0.0 0.0 0.00 0.00 0.00 88 1016.7
20260903042623 22 0 0.0 0.0 0.00 0.00 0.00 88 1016.6
20260903042541 22 0 0.0 0.0 0.00 0.00 0.00 88 1016.6
20260903041713 22 0 0.0 0.0 0.00 0.00 0.00 88 1016.5
20260903041639 22 0 0.0 0.0 0.00 0.00 0.00 88 1016.5
20260903040811 22 0 0.0 0.0 0.00 0.00 0.00 88 1016.7
20260903040740 22 0 0.0 0.0 0.00 0.00 0.00 88 1016.7
20260903035837 22 0 0.0 0.0 0.00 0.00 0.00 88 1016.7
20260903034938 22 0 0.0 0.0 0.00 0.00 0.00 88 1016.7
20260903034130 22 0 0.0 0.0 0.00 0.00 0.00 88 1016.9
20260903034036 22 0 0.0 0.0 0.00 0.00 0.00 88 1016.9
20260903033248 22 0 0.0 0.0 0.00 0.00 0.00 88 1016.8
20260903033137 22 0 0.0 0.0 0.00 0.00 0.00 88 1016.8
20260903031338 22 0 0.0 0.0 0.00 0.00 0.00 88 1016.9
20260903030437 22 0 0.0 0.0 0.00 0.00 0.00 88 1017.1
20260903025610 22 0 0.0 0.0 0.00 0.00 0.00 88 1017.0
20260903025538 22 0 0.0 0.0 0.00 0.00 0.00 88 1017.0
20260903024719 22 0 0.0 0.0 0.00 0.00 0.00 88 1017.2
20260903024638 22 0 0.0 0.0 0.00 0.00 0.00 88 1017.2
20260903023738 22 0 0.0 0.0 0.00 0.00 0.00 88 1017.3
20260903022838 22 0 0.0 0.0 0.00 0.00 0.00 88 1017.2
20260903022731 22 0 0.0 0.0 0.00 0.00 0.00 88 1017.1
20260903021829 22 0 0.0 0.0 0.00 0.00 0.00 88 1017.2
20260903020930 22 0 0.0 0.0 0.00 0.00 0.00 88 1017.3
20260903020031 22 0 0.0 0.0 0.00 0.00 0.00 88 1017.2
20260903015133 22 0 0.0 0.0 0.00 0.00 0.00 88 1017.3
20260903014231 22 0 0.0 0.0 0.00 0.00 0.00 88 1017.3
20260903013331 22 0 0.0 0.0 0.00 0.00 0.00 88 1017.1
20260903012431 22 0 0.0 0.0 0.00 0.00 0.00 88 1017.0
20260903011530 22 0 0.0 0.0 0.00 0.00 0.00 88 1016.9
20260903010632 22 0 0.0 0.0 0.00 0.00 0.00 88 1016.9
20260903005730 22 0 0.0 0.0 0.00 0.00 0.00 88 1016.7
20260903004830 22 0 0.0 0.0 0.00 0.00 0.00 88 1016.6
20260903003930 22 0 0.0 0.0 0.00 0.00 0.00 88 1016.6
20260903003245 22 0 0.0 0.0 0.00 0.00 0.00 88 1016.6
20260903003030 22 0 0.0 0.0 0.00 0.00 0.00 88 1016.6
20260903002130 22 0 0.0 0.0 0.00 0.00 0.00 88 1016.5
20260903001231 22 0 0.0 0.0 0.00 0.00 0.00 88 1016.6
20260903000332 22 0 0.0 0.0 0.00 0.00 0.00 88 1016.6
20260902235431 22 0 0.0 0.0 0.00 0.00 0.00 88 1016.5
20260902231830 22 0 0.0 0.0 0.00 0.00 0.00 88 1016.5
20260902230931 22 0 0.0 0.0 0.00 0.00 0.00 88 1016.5
20260902230030 22 0 0.0 0.0 0.00 0.00 0.00 88 1016.5
20260902225130 22 0 0.0 0.0 0.00 0.00 0.00 88 1016.6
20260902224230 22 0 0.0 0.0 0.00 0.00 0.00 88 1016.6
20260902223331 22 0 0.0 0.0 0.00 0.00 0.00 88 1016.6
20260902222429 22 0 0.0 0.0 0.00 0.00 0.00 88 1016.7
20260902221530 22 0 0.0 0.0 0.00 0.00 0.00 88 1016.6
20260902220632 22 0 0.0 0.0 0.00 0.00 0.00 88 1016.8
20260902215730 22 0 0.0 0.0 0.00 0.00 0.00 88 1016.7
20260902214831 22 0 0.0 0.0 0.00 0.00 0.00 88 1016.7
20260902213931 22 0 0.0 0.0 0.00 0.00 0.00 88 1016.8
20260902213031 22 0 0.0 0.0 0.00 0.00 0.00 88 1016.7
20260902212130 22 0 0.0 0.0 0.00 0.00 0.00 88 1016.8
20260902211233 22 0 0.0 0.0 0.00 0.00 0.00 88 1016.9
20260902210330 22 0 0.0 0.0 0.00 0.00 0.00 88 1016.8
20260902205429 22 0 0.0 0.0 0.00 0.00 0.00 88 1016.8
20260902204530 22 0 0.0 0.0 0.00 0.00 0.00 88 1016.9
20260902203630 22 0 0.0 0.0 0.00 0.00 0.00 88 1017.0
20260902202730 22 0 0.0 0.0 0.00 0.00 0.00 88 1017.0
20260902201831 22 0 0.0 0.0 0.00 0.00 0.00 88 1017.3
20260902200930 22 0 0.0 0.0 0.00 0.00 0.00 88 1017.3
20260902200030 22 0 0.0 0.0 0.00 0.00 0.00 88 1017.4
20260902195129 22 0 0.0 0.0 0.00 0.00 0.00 88 1017.6
20260902194229 22 0 0.0 0.0 0.00 0.00 0.00 88 1017.6
20260902193330 22 0 0.0 0.0 0.00 0.00 0.00 88 1017.8
20260902192430 22 0 0.0 0.0 0.00 0.00 0.00 88 1017.7
20260902191529 22 0 0.0 0.0 0.00 0.00 0.00 88 1017.7
20260902190630 22 0 0.0 0.0 0.00 0.00 0.00 88 1017.8
20260902185815 22 0 0.0 0.0 0.00 0.00 0.00 88 1017.8
20260902185731 22 0 0.0 0.0 0.00 0.00 0.00 88 1017.8
20260902184829 22 0 0.0 0.0 0.00 0.00 0.00 88 1017.8
20260902183929 22 0 0.0 0.0 0.00 0.00 0.00 88 1017.9
20260902183029 22 0 0.0 0.0 0.00 0.00 0.00 88 1018.2
20260902182129 22 0 0.0 0.0 0.00 0.00 0.00 88 1018.2
20260902181230 22 0 0.0 0.0 0.00 0.00 0.00 88 1018.4
20260902180330 22 0 0.0 0.0 0.00 0.00 0.00 88 1018.4
20260902175429 22 0 0.0 0.0 0.00 0.00 0.00 88 1018.5
20260902174529 22 0 0.0 0.0 0.00 0.00 0.00 88 1018.6
20260902173629 22 0 0.0 0.0 0.00 0.00 0.00 88 1018.6
20260902172730 22 0 0.0 0.0 0.00 0.00 0.00 88 1018.7
20260902171829 22 0 0.0 0.0 0.00 0.00 0.00 88 1018.8
20260902170930 22 0 0.0 0.0 0.00 0.00 0.00 88 1018.8
20260902170030 22 0 0.0 0.0 0.00 0.00 0.00 88 1018.8
20260902165130 22 0 0.0 0.0 0.00 0.00 0.00 88 1018.9
20260902164230 22 0 0.0 0.0 0.00 0.00 0.00 88 1018.9
20260902163329 22 0 0.0 0.0 0.00 0.00 0.00 88 1019.0
20260902162431 22 0 0.0 0.0 0.00 0.00 0.00 88 1019.0
20260902161531 22 0 0.0 0.0 0.00 0.00 0.00 88 1019.0
20260902160629 22 0 0.0 0.0 0.00 0.00 0.00 88 1019.1
20260902154829 22 0 0.0 0.0 0.00 0.00 0.00 88 1019.1
20260902153930 22 0 0.0 0.0 0.00 0.00 0.00 88 1019.2
20260902153029 22 0 0.0 0.0 0.00 0.00 0.00 88 1019.1
20260902152130 22 0 0.0 0.0 0.00 0.00 0.00 88 1019.0
20260902151229 22 0 0.0 0.0 0.00 0.00 0.00 88 1019.0
20260902150329 22 0 0.0 0.0 0.00 0.00 0.00 88 1018.9
20260902145430 22 0 0.0 0.0 0.00 0.00 0.00 88 1019.1
20260902144531 22 0 0.0 0.0 0.00 0.00 0.00 88 1019.1
20260902143629 22 0 0.0 0.0 0.00 0.00 0.00 88 1019.1
20260902142730 22 0 0.0 0.0 0.00 0.00 0.00 88 1019.1
20260902141833 22 0 0.0 0.0 0.00 0.00 0.00 88 1019.2
20260902140930 22 0 0.0 0.0 0.00 0.00 0.00 88 1019.2
20260902140030 22 0 0.0 0.0 0.00 0.00 0.00 88 1019.2
20260902135130 22 0 0.0 0.0 0.00 0.00 0.00 88 1019.1
20260902134302 22 0 0.0 0.0 0.00 0.00 0.00 88 1019.2
20260902134230 22 0 0.0 0.0 0.00 0.00 0.00 88 1019.2
20260902133329 22 0 0.0 0.0 0.00 0.00 0.00 88 1019.3
20260902132429 22 0 0.0 0.0 0.00 0.00 0.00 88 1019.2
20260902131530 22 0 0.0 0.0 0.00 0.00 0.00 88 1019.2